Location: Newark
(48.0000°N, 67.0000°E)
Time: 14:34:34
(UTC+00:00)

Vanguard 2 - Pass Details

Date: 23 February 2020
Orbit: 553 x 2938 km, 32.9° (Epoch: 31 March)

Event Time Altitude Azimuth Distance (km) Brightness Sun altitude
Exits shadow 00:55:38 16° 246° (WSW) 4,153 10.7 -15.8°
Maximum altitude 01:06:01 43° 186° (S) 3,365 10.7 -14.1°
Drops below altitude 10° 01:21:49 10° 124° (SE) 5,766 12.9 -11.4°
Sets 01:26:40 0° 119° (ESE) 6,756 13.6 -10.6°
